SCP
1 1 1 2 2 2 2 2 2 1 1 1 1 0 0 0 1 1 1 2 2 2 2 2 2 2 2 2 3 3 3 3 3 2 2 2 2 2 2 2 2 2 2
2 2 2 2 3 3 3 3 2 1 1 1 1 1 0 1 1 1 1 1 2 2 2 2 2 2 2 2 3 3 3 3 3 3 2 2 3 3 3 3 2 2 2
4 4 3 3 4 4 4 3 2 1 1 1 1 1 1 1 1 1 1 1 1 2 2 2 2 2 2 2 3 3 3 3 3 3 3 3 3 3 3 3 3 3 3
6 6 5 5 5 4 4 3 3 2 1 1 1 1 1 1 1 1 1 1 1 1 1 2 2 2 2 2 3 3 3 3 3 3 3 3 3 3 3 3 3 3 3
5 6 6 6 6 5 4 4 3 2 2 1 1 1 1 1 1 1 1 1 1 1 1 1 1 1 2 2 2 2 2 2 3 2 3 3 3 3 2 3 3 3 3
5 6 6 6 5 4 4 4 3 2 1 1 1 0 0 0 0 0 0 0 0 0 0 1 1 1 1 1 2 2 2 1 2 2 2 2 2 2 2 2 2 2 2
4 5 5 4 4 4 4 3 2 1 1 1 1 0 0 0 0 0 0 0 0 0 0 0 0 0 0 0 1 1 1 0 1 1 1 1 1 1 1 1 1 2 2
4 4 3 3 3 3 3 3 2 1 1 0 0 0 0 0 0 0 0 0 0 0 0 0 0 0 0 0 0 0 0 0 0 0 1 1 1 1 1 1 1 1 1
3 3 2 2 2 3 3 2 1 1 1 0 0 0 0 0 0 0 0 0 0 0 0 0 0 0 0 0 0 0 0 0 0 0 0 0 0 1 1 0 0 0 1
2 2 2 2 2 2 2 1 1 1 0 0 0 0 0 0 0 0 0 0 0 0 0 0 0 0 0 0 0 0 0 0 0 0 0 0 0 0 0 0 0 0 0
1 1 1 2 2 1 1 0 0 1 0 0 0 0 0 0 0 0 0 0 0 0 0 0 0 0 0 0 0 0 0 0 0 0 0 0 0 0 0 0 0 0 0
0 1 1 1 1 1 0 0 0 0 0 0 0 0 0 0 0 0 0 0 0 0 0 0 0 0 0 0 0 0 0 0 0 0 0 0 0 0 0 0 0 0 0
0 0 0 0 0 0 0 0 0 0 0 0 0 0 0 0 0 0 0 0 0 0 0 0 0 0 0 0 0 0 0 0 0 0 0 0 0 0 0 0 0 0 0
0 0 0 0 0 0 0 0 0 0 0 0 0 0 0 0 0 0 0 0 0 0 0 0 0 0 0 0 0 0 0 0 0 0 0 0 0 0 0 0 0 0 0
0 0 0 0 0 0 0 0 0 0 0 0 0 0 0 0 0 0 0 0 0 0 0 0 0 0 0 0 0 0 0 0 0 0 0 0 0 0 0 0 0 0 0
0 0 0 0 0 0 0 0 0 0 0 0 0 0 0 0 0 0 0 0 0 0 0 0 0 0 0 0 0 0 0 0 0 0 0 0 0 0 0 0 0 0 0
0 0 0 0 0 0 0 0 0 0 0 0 0 0 0 0 0 0 0 0 0 0 0 0 0 0 0 0 0 0 0 0 0 0 0 0 0 0 0 0 0 0 0
0 0 0 0 0 0 0 0 0 0 0 0 0 0 0 0 0 0 0 0 0 0 0 0 0 0 0 0 0 0 0 0 0 0 0 0 0 0 0 0 0 0 0
0 0 0 0 0 0 0 0 0 0 0 0 0 0 0 0 0 0 0 0 0 0 0 0 0 0 0 0 0 0 0 0 0 0 0 0 0 0 0 0 0 0 0
0 0 0 0 0 0 0 0 0 0 0 0 0 0 0 0 0 0 0 0 0 0 0 0 0 0 0 0 0 0 0 0 0 0 0 0 0 0 0 0 0 0 0
0 0 0 0 0 0 0 0 0 0 0 0 0 0 0 0 0 0 0 0 0 0 0 0 0 0 0 0 0 0 0 0 0 0 0 0 0 0 0 0 0 0 0
0 0 0 0 0 0 0 0 0 0 0 0 0 0 0 0 0 0 0 0 0 0 0 0 0 0 0 0 0 0 0 0 0 0 0 0 0 0 0 0 0 0 0
0 0 0 0 0 0 0 0 0 0 0 0 0 0 0 0 0 0 0 0 0 0 0 0 0 0 0 0 0 0 0 0 0 0 0 0 0 0 0 0 0 0 0
0 0 0 0 0 0 0 0 0 0 0 0 0 0 0 0 0 0 0 0 0 0 0 0 0 0 0 0 0 0 0 0 0 0 0 0 0 0 0 0 0 0 0
0 0 0 0 0 0 0 0 0 0 0 0 0 0 0 0 0 0 0 0 0 0 0 0 0 0 0 0 0 0 0 0 0 0 0 0 0 0 0 0 0 0 0
0 0 0 0 0 0 0 0 0 0 0 0 0 0 0 0 0 0 0 0 0 0 0 0 0 0 0 0 0 0 0 0 0 0 0 0 0 0 0 0 0 0 0
Wind_Speed
6 5 4 3 4 3 5 4 4 3 4 4 3 2 2 1 2 2 4 8 4 2 1 1 3 4 6 7 7 8 8 8 8 8 8 8 7 7 6 6 6 6 6
4 4 4 4 3 3 2 3 3 3 3 1 2 1 3 2 0 3 1 5 7 4 3 1 1 3 4 6 7 8 9 9 9 9 9 8 8 8 7 7 7 7 7
4 4 4 3 2 2 2 2 2 2 2 2 1 1 1 2 2 2 3 2 3 6 5 3 2 1 1 2 4 5 6 7 8 9 9 9 9 8 8 8 8 8 8
5 4 3 3 2 2 3 2 3 3 2 2 2 1 1 1 1 2 3 3 2 1 5 7 7 6 5 3 2 2 2 3 4 6 7 7 8 8 9 9 9 9 9
4 3 2 2 3 2 2 2 1 2 2 1 1 0 1 2 1 1 2 2 2 2 1 6 7 8 7 6 4 3 3 3 3 4 5 6 6 6 7 8 9 9 10
2 2 2 2 2 2 2 1 2 1 0 1 1 0 1 1 1 1 1 1 1 1 1 1 1 5 6 6 6 5 4 4 5 5 7 7 7 7 8 8 9 10 11
2 2 2 3 2 2 3 4 3 4 2 1 2 2 1 1 0 1 1 1 1 0 1 1 2 2 1 4 3 3 4 5 6 7 8 9 9 9 10 10 11 12 12
3 3 3 3 3 3 4 4 3 2 2 2 2 2 3 4 4 3 3 3 3 3 3 3 2 3 5 4 2 0 4 7 8 10 11 11 11 12 13 14 14 14 14
3 3 3 3 4 4 4 4 4 4 3 2 1 2 4 4 2 4 4 4 4 4 5 4 6 5 6 6 6 4 4 7 10 12 13 14 14 15 16 16 16 17 18
4 3 3 3 3 3 4 4 3 2 2 2 2 0 2 3 3 3 5 6 6 6 7 6 7 7 8 8 6 8 7 9 11 13 15 16 16 17 18 19 19 19 20
5 5 5 4 4 4 4 4 3 2 1 0 0 1 0 2 4 5 5 4 6 6 6 7 7 8 8 9 8 8 6 10 13 15 17 18 18 19 20 20 21 21 22
5 6 6 5 5 5 5 5 4 4 3 2 1 1 2 3 4 5 7 7 7 6 6 6 8 8 8 9 11 7 8 13 15 17 18 19 20 20 21 22 22 23 23
6 6 6 6 5 5 5 4 4 3 3 2 1 1 2 3 4 5 7 8 9 8 8 8 7 7 8 8 8 6 11 15 17 17 18 19 20 21 22 23 23 23 24
7 7 7 7 7 6 5 4 3 3 2 1 1 2 3 4 4 5 6 8 10 10 9 9 7 8 7 8 7 6 13 15 16 17 18 20 21 22 23 23 23 23 24
7 8 8 7 7 6 5 4 3 2 1 1 1 2 4 4 5 6 6 8 10 11 11 9 9 9 8 9 9 11 14 14 15 17 19 20 22 23 23 23 23 24 24
8 8 8 7 7 6 5 3 3 2 1 1 2 4 5 5 5 6 7 7 8 10 12 9 9 10 11 11 13 14 14 16 18 19 20 20 21 21 23 24 24 24 24
8 8 7 7 6 5 4 3 3 2 2 3 4 5 5 6 7 7 7 7 8 9 11 10 10 10 12 14 13 13 13 14 12 14 16 17 19 21 22 23 24 24 24
8 8 7 7 6 5 4 3 3 3 3 4 5 6 7 6 7 8 7 8 8 9 10 12 11 11 13 13 13 13 13 12 12 13 14 17 20 21 22 22 23 22 22
8 7 6 6 5 4 4 3 3 4 4 5 6 7 7 8 8 8 9 9 8 8 9 10 11 10 11 11 12 12 13 11 13 12 13 16 19 19 19 19 20 19 18
7 6 6 6 4 3 3 4 4 4 5 6 6 7 8 8 9 9 9 9 9 10 10 10 10 10 10 11 10 9 10 10 11 12 13 13 14 15 18 19 20 20 18
7 6 5 3 2 2 6 7 7 7 7 8 8 8 7 8 10 9 9 10 10 9 9 9 10 10 10 9 9 9 10 10 11 10 10 10 10 10 11 13 17 18 17
5 4 3 3 3 5 7 8 10 9 8 9 9 8 8 8 7 9 12 14 14 13 12 11 10 10 12 11 10 9 9 10 9 7 9 11 10 10 9 9 8 9 12
4 3 3 3 3 7 5 7 9 11 10 8 8 8 8 7 8 9 9 12 14 15 15 12 12 12 12 11 11 11 10 10 10 10 9 10 10 9 9 8 7 9 10
3 3 3 4 3 5 5 8 13 12 9 8 8 8 8 9 7 9 12 13 13 10 9 9 10 11 11 11 11 10 10 10 11 9 7 8 9 10 11 8 4 6 9
3 3 3 4 5 3 5 8 13 10 7 8 8 7 7 8 7 10 12 13 13 10 7 8 11 13 13 13 11 8 8 7 8 8 6 6 8 10 10 8 4 5 9
3 3 3 4 5 5 4 5 12 8 7 8 8 7 3 5 9 11 12 12 12 11 12 11 9 8 8 7 7 7 6 7 6 5 4 5 6 7 7 7 7 6 5
Wind_Direction
206 201 204 211 220 198 194 217 221 190 219 208 223 247 269 276 289 292 119 109 98 90 129 213 229 230 227 225 224 225 226 226 223 219 216 217 218 219 220 221 219 219 222
207 210 204 208 222 221 220 219 200 199 224 235 231 267 284 284 305 283 276 132 113 90 74 55 267 252 240 236 237 236 233 228 225 221 217 215 216 218 220 222 222 222 222
209 217 215 203 213 205 191 221 190 206 200 203 217 275 298 316 336 303 284 265 161 113 83 61 46 25 307 257 249 248 242 235 232 228 225 224 222 223 223 223 224 226 227
220 222 219 208 188 206 202 196 218 217 209 226 226 272 306 298 350 318 292 281 298 171 105 75 64 59 52 37 359 299 279 257 249 246 241 239 237 235 234 233 231 231 233
231 226 221 206 186 192 204 211 185 241 226 247 251 322 315 338 339 357 346 340 23 331 56 98 84 67 57 47 30 9 345 332 307 287 277 268 264 260 250 245 243 241 240
234 234 208 184 176 162 156 133 126 101 183 211 253 43 338 349 325 41 294 45 29 6 11 30 153 104 81 58 39 27 15 360 344 327 303 292 288 281 272 264 258 252 250
203 199 181 156 158 157 147 154 159 164 174 198 216 209 187 211 294 219 249 241 174 235 259 271 295 312 166 135 92 13 345 330 319 311 307 305 306 299 286 279 272 265 259
185 168 167 177 170 156 155 167 178 196 171 201 246 247 239 209 207 209 218 220 238 240 246 252 289 281 290 285 119 247 313 311 305 300 294 293 295 295 293 284 277 271 266
130 127 159 168 166 164 162 171 187 203 188 172 258 259 264 268 204 188 219 235 244 263 266 270 261 268 272 279 274 234 277 299 299 294 291 289 289 289 286 284 281 276 270
107 122 130 136 144 141 144 159 149 169 179 181 165 283 323 336 290 258 210 217 233 249 264 274 277 270 265 267 269 275 267 281 287 288 287 286 285 284 283 279 277 276 273
107 107 104 104 105 105 108 106 106 92 101 63 133 150 242 253 258 273 278 260 246 247 252 262 273 278 277 272 273 272 277 282 283 284 284 283 282 282 281 280 277 274 273
103 102 104 101 100 102 105 103 101 94 71 62 23 308 267 275 276 279 281 278 277 276 275 280 276 272 273 275 274 292 291 283 281 282 282 281 281 281 280 279 277 275 274
105 103 102 98 95 93 93 93 89 86 85 85 312 302 297 294 304 294 289 291 291 286 277 266 266 276 280 283 286 296 280 280 279 279 279 280 280 279 278 277 277 276 275
107 109 105 102 100 100 97 93 99 94 91 84 339 323 299 296 301 295 295 297 291 285 279 281 291 288 292 294 301 306 284 277 273 273 274 276 277 277 276 275 275 275 275
109 105 103 101 98 95 94 97 91 83 78 346 308 294 296 304 292 295 292 287 291 294 293 299 295 301 301 295 301 292 289 286 283 279 275 274 274 274 274 274 273 273 273
101 105 104 101 98 96 96 93 99 74 23 351 329 322 309 306 308 290 286 288 287 288 290 295 296 298 307 302 297 294 290 288 275 268 266 267 269 271 272 273 272 271 270
99 100 100 98 95 90 83 73 57 42 349 335 321 315 311 312 304 305 295 289 286 287 289 294 299 302 301 294 294 294 293 291 286 275 270 270 270 270 270 271 271 271 270
93 94 96 95 90 82 74 61 32 9 345 332 324 314 307 305 302 293 298 295 293 295 291 294 298 298 295 293 292 294 293 292 293 289 277 272 272 271 269 268 268 267 266
87 88 89 86 80 73 63 44 14 352 337 326 319 312 309 306 300 302 302 296 296 295 293 293 294 295 293 294 297 294 296 297 294 291 278 266 267 267 266 264 264 262 259
83 79 77 76 74 64 41 14 353 337 324 317 311 305 301 302 302 305 296 294 297 300 297 294 293 295 295 298 298 300 302 301 299 298 295 291 282 270 264 262 261 260 256
77 76 77 78 68 58 33 1 337 328 323 315 310 306 303 306 302 297 302 308 306 300 297 294 294 296 298 303 303 304 299 300 297 298 303 297 292 286 279 264 257 257 254
76 74 65 48 33 50 44 4 333 325 317 312 314 312 304 283 283 276 274 281 289 292 297 297 295 296 300 302 305 301 300 301 302 306 305 300 298 295 292 284 274 260 253
71 55 41 28 45 73 37 354 338 314 308 313 312 309 307 314 304 307 301 286 276 262 262 277 287 292 298 304 306 301 299 301 299 301 298 296 302 302 297 294 271 260 259
47 35 21 11 9 68 40 351 332 302 304 310 308 306 305 310 336 334 316 304 299 297 287 280 291 298 303 308 305 300 300 298 295 295 301 299 308 310 309 307 280 258 261
30 12 17 1 352 52 49 353 331 314 315 316 313 309 309 315 357 329 306 300 303 308 296 273 276 279 282 282 285 293 296 298 304 310 328 313 311 316 311 311 305 260 261
17 1 14 356 350 6 54 354 332 318 325 322 319 316 310 327 329 315 307 306 311 319 317 310 297 290 289 286 265 274 294 300 305 307 340 321 306 315 307 309 320 317 298